TimeCST,TemperatureF,Dew PointF,Humidity,Sea Level PressureIn,VisibilityMPH,Wind Direction,Wind SpeedMPH,Gust SpeedMPH,PrecipitationIn,Events,Conditions,WindDirDegrees,DateUTC
12:15 AM,17.6,15.8,93,29.86,0.5,NE,20.7,26.5,N/A,Snow,Light Snow,50,2013-02-22 06:15:00
12:35 AM,17.6,15.8,93,29.85,0.8,NE,19.6,26.5,N/A,Snow,Light Snow,40,2013-02-22 06:35:00
12:55 AM,17.6,15.8,93,29.85,1.2,NE,19.6,25.3,N/A,Snow,Light Snow,50,2013-02-22 06:55:00
1:15 AM,17.6,15.8,93,29.84,0.5,NE,17.3,25.3,N/A,Snow,Light Snow,40,2013-02-22 07:15:00
1:35 AM,17.6,15.8,93,29.84,0.5,NE,19.6,-,N/A,Snow,Light Snow,40,2013-02-22 07:35:00
1:55 AM,17.6,15.8,93,29.83,1.0,NE,18.4,-,N/A,Snow,Light Snow,40,2013-02-22 07:55:00
2:15 AM,17.6,15.8,93,29.83,1.0,NE,17.3,-,N/A,Snow,Light Snow,40,2013-02-22 08:15:00
2:35 AM,17.6,14.0,86,29.82,1.0,NNE,16.1,21.9,N/A,Snow,Light Snow,30,2013-02-22 08:35:00
2:55 AM,17.6,14.0,86,29.82,1.0,NNE,18.4,-,N/A,Snow,Light Snow,30,2013-02-22 08:55:00
3:15 AM,17.6,14.0,86,29.81,1.0,NNE,15.0,-,N/A,Snow,Light Snow,30,2013-02-22 09:15:00
3:35 AM,17.6,14.0,86,29.81,1.2,NNE,13.8,-,N/A,Snow,Light Snow,30,2013-02-22 09:35:00
4:15 AM,17.6,15.8,93,29.80,1.2,NNE,15.0,-,N/A,Snow,Light Snow,30,2013-02-22 10:15:00
4:35 AM,17.6,15.8,93,29.80,1.2,NNE,16.1,-,N/A,Snow,Light Snow,20,2013-02-22 10:35:00
4:55 AM,17.6,15.8,93,29.81,2.0,NNE,15.0,-,N/A,Snow,Light Snow,20,2013-02-22 10:55:00
5:15 AM,17.6,15.8,93,29.81,2.0,NNE,15.0,-,N/A,Snow,Light Snow,20,2013-02-22 11:15:00
5:35 AM,17.6,15.8,93,29.81,2.0,North,12.7,19.6,N/A,Snow,Light Snow,10,2013-02-22 11:35:00
5:55 AM,17.6,14.0,86,29.81,1.8,North,16.1,-,N/A,Snow,Light Snow,10,2013-02-22 11:55:00
6:15 AM,17.6,14.0,86,29.81,3.0,North,16.1,-,N/A,Snow,Light Snow,10,2013-02-22 12:15:00
6:35 AM,17.6,14.0,86,29.82,1.8,North,15.0,-,N/A,Snow,Light Snow,10,2013-02-22 12:35:00
6:55 AM,17.6,14.0,86,29.81,1.5,North,16.1,-,N/A,Snow,Light Snow,10,2013-02-22 12:55:00
7:35 AM,17.6,14.0,86,29.82,1.2,North,13.8,-,N/A,Snow,Light Snow,10,2013-02-22 13:35:00
7:55 AM,17.6,14.0,86,29.82,1.5,North,16.1,-,N/A,Snow,Light Snow,10,2013-02-22 13:55:00
8:15 AM,17.6,14.0,86,29.83,2.5,North,12.7,-,N/A,Snow,Light Snow,360,2013-02-22 14:15:00
8:35 AM,17.6,14.0,86,29.84,4.0,North,12.7,-,N/A,Snow,Light Snow,350,2013-02-22 14:35:00
8:55 AM,15.8,14.0,93,29.84,8.0,North,13.8,-,N/A,Snow,Light Snow,360,2013-02-22 14:55:00
9:15 AM,17.6,14.0,86,29.84,9.0,North,13.8,-,N/A,,Overcast,350,2013-02-22 15:15:00
9:35 AM,17.6,14.0,86,29.85,9.0,North,12.7,-,N/A,,Overcast,350,2013-02-22 15:35:00
9:55 AM,17.6,14.0,86,29.86,10.0,NNW,11.5,-,N/A,,Mostly Cloudy,340,2013-02-22 15:55:00
10:15 AM,19.4,15.8,86,29.86,10.0,North,11.5,-,N/A,,Mostly Cloudy,350,2013-02-22 16:15:00
10:35 AM,19.4,15.8,86,29.86,9.0,NNW,9.2,-,N/A,,Overcast,340,2013-02-22 16:35:00
11:15 AM,21.2,15.8,80,29.87,10.0,NW,9.2,-,N/A,,Overcast,320,2013-02-22 17:15:00
11:35 AM,21.2,15.8,80,29.87,10.0,NNW,11.5,-,N/A,,Overcast,330,2013-02-22 17:35:00
11:55 AM,21.2,15.8,80,29.88,10.0,NW,10.4,-,N/A,,Overcast,320,2013-02-22 17:55:00
12:15 PM,21.2,15.8,80,29.89,10.0,NW,12.7,-,N/A,,Overcast,310,2013-02-22 18:15:00
12:35 PM,21.2,15.8,80,29.89,10.0,NW,11.5,-,N/A,,Overcast,320,2013-02-22 18:35:00
12:55 PM,21.2,17.6,86,29.88,10.0,NW,10.4,16.1,N/A,,Overcast,320,2013-02-22 18:55:00
1:15 PM,23.0,17.6,80,29.88,10.0,NW,12.7,-,N/A,,Overcast,310,2013-02-22 19:15:00
1:35 PM,23.0,17.6,80,29.88,10.0,WNW,12.7,-,N/A,,Overcast,300,2013-02-22 19:35:00
1:55 PM,23.0,17.6,80,29.88,10.0,NW,13.8,-,N/A,,Overcast,310,2013-02-22 19:55:00
2:15 PM,23.0,17.6,80,29.88,10.0,WNW,15.0,-,N/A,,Overcast,300,2013-02-22 20:15:00
2:35 PM,23.0,17.6,80,29.88,10.0,NW,17.3,-,N/A,,Overcast,310,2013-02-22 20:35:00
2:55 PM,23.0,17.6,80,29.88,10.0,NW,17.3,-,N/A,,Overcast,310,2013-02-22 20:55:00
3:15 PM,23.0,15.8,74,29.89,10.0,WNW,15.0,-,N/A,,Overcast,300,2013-02-22 21:15:00
3:35 PM,23.0,17.6,80,29.88,10.0,WNW,15.0,-,N/A,,Overcast,300,2013-02-22 21:35:00
3:55 PM,21.2,17.6,86,29.89,10.0,WNW,15.0,21.9,N/A,,Overcast,300,2013-02-22 21:55:00
4:15 PM,21.2,17.6,86,29.90,10.0,WNW,15.0,-,N/A,,Overcast,290,2013-02-22 22:15:00
4:35 PM,23.0,17.6,80,29.90,10.0,NW,15.0,-,N/A,,Overcast,310,2013-02-22 22:35:00
4:55 PM,21.2,17.6,86,29.91,10.0,WNW,15.0,-,N/A,,Overcast,300,2013-02-22 22:55:00
5:15 PM,21.2,15.8,80,29.91,10.0,WNW,15.0,21.9,N/A,,Overcast,300,2013-02-22 23:15:00
5:35 PM,21.2,17.6,86,29.92,10.0,WNW,11.5,-,N/A,,Overcast,300,2013-02-22 23:35:00
5:55 PM,21.2,17.6,86,29.91,10.0,WNW,13.8,-,N/A,,Overcast,300,2013-02-22 23:55:00
6:15 PM,21.2,17.6,86,29.92,10.0,WNW,13.8,-,N/A,,Overcast,290,2013-02-23 00:15:00
6:35 PM,19.4,15.8,86,29.92,10.0,WNW,10.4,-,N/A,,Mostly Cloudy,290,2013-02-23 00:35:00
6:55 PM,19.4,15.8,86,29.92,10.0,WNW,11.5,-,N/A,,Mostly Cloudy,290,2013-02-23 00:55:00
7:15 PM,17.6,15.8,93,29.92,10.0,West,10.4,-,N/A,,Mostly Cloudy,280,2013-02-23 01:15:00
7:35 PM,17.6,14.0,86,29.92,10.0,West,11.5,-,N/A,,Scattered Clouds,280,2013-02-23 01:35:00
7:55 PM,15.8,12.2,86,29.92,10.0,West,11.5,-,N/A,,Mostly Cloudy,270,2013-02-23 01:55:00
8:15 PM,15.8,12.2,86,29.92,10.0,West,10.4,-,N/A,,Overcast,270,2013-02-23 02:15:00
8:35 PM,14.0,12.2,93,29.93,10.0,West,10.4,-,N/A,,Overcast,270,2013-02-23 02:35:00
8:55 PM,14.0,12.2,93,29.93,10.0,West,11.5,-,N/A,,Overcast,270,2013-02-23 02:55:00
9:15 PM,14.0,12.2,93,29.92,10.0,West,10.4,-,N/A,,Overcast,270,2013-02-23 03:15:00
9:35 PM,12.2,10.4,92,29.93,10.0,West,10.4,-,N/A,,Overcast,270,2013-02-23 03:35:00
9:55 PM,14.0,12.2,93,29.93,10.0,West,9.2,-,N/A,,Overcast,270,2013-02-23 03:55:00
10:15 PM,14.0,10.4,86,29.93,10.0,West,9.2,-,N/A,,Mostly Cloudy,270,2013-02-23 04:15:00
10:35 PM,12.2,10.4,92,29.93,10.0,West,9.2,-,N/A,,Mostly Cloudy,260,2013-02-23 04:35:00
10:55 PM,14.0,10.4,86,29.93,10.0,West,9.2,-,N/A,,Overcast,260,2013-02-23 04:55:00
11:15 PM,14.0,12.2,93,29.93,10.0,West,11.5,-,N/A,,Overcast,270,2013-02-23 05:15:00
11:35 PM,14.0,12.2,93,29.92,10.0,West,11.5,-,N/A,,Overcast,260,2013-02-23 05:35:00
11:55 PM,12.2,10.4,92,29.92,10.0,West,10.4,-,N/A,,Mostly Cloudy,270,2013-02-23 05:55:00